DO8TBO-15 Weather Reports


Display with metric or nautical units.
time (UTC)temp
F
wind
direction
speed
MPH
gust
MPH
rain 1hr
in
rain 24hr
in
rain mn
in
humidity
%
barometer
mb
20260905213519 58 0.0 0.0 0.00 0.02 0.02 1024.8
20260905212515 58 0.0 4.0 0.00 0.02 0.02 1024.8
20260905211612 57 0 0.0 4.0 0.00 0.02 0.02 1024.8
20260905205604 57 0.0 0.0 0.00 0.02 0.02 1024.7
20260905203557 57 0.0 0.0 0.00 0.02 0.02 1024.6
20260905202553 57 0.0 0.0 0.00 0.02 0.02 1024.6
20260905201550 58 0.0 0.0 0.00 0.02 0.02 1024.5
20260905200545 58 0.0 0.0 0.00 0.02 0.02 1024.4
20260905195542 59 0.0 0.0 0.00 0.02 0.02 1024.3
20260905194538 60 0.0 2.0 0.00 0.02 0.02 1024.2
20260905192600 61 0.0 2.0 0.00 0.02 0.02 1023.9
20260905191557 62 0.0 1.0 0.00 0.02 0.02 1023.9
20260905190552 62 0.0 0.0 0.00 0.02 0.02 1023.8
20260905185549 62 0.0 1.0 0.00 0.02 0.02 1023.8
20260905184545 63 0.0 0.0 0.00 0.02 0.02 1023.9
20260905183541 64 0.0 0.0 0.00 0.02 0.02 1023.7
20260905182537 65 0.0 0.0 0.00 0.02 0.02 1023.6
20260905180531 66 0.0 2.0 0.00 0.02 0.02 1023.4
20260905175527 67 0.0 2.0 0.00 0.02 0.02 1023.2
20260905174523 67 240 0.0 6.0 0.00 0.02 0.02 1023.1
20260905173519 68 0 0.0 2.0 0.00 0.02 0.02 1023.2
20260905172516 69 225 0.0 3.0 0.00 0.02 0.02 1022.9
20260905171611 69 270 0.0 4.0 0.00 0.02 0.02 1022.8
20260905170609 70 0.0 1.0 0.00 0.02 0.02 1022.7
20260905165604 71 135 1.0 8.0 0.00 0.02 0.02 1022.6
20260905164601 73 315 1.0 8.0 0.00 0.02 0.02 1022.4
20260905163557 73 6 3.0 11.0 0.00 0.02 0.02 1022.3
20260905162553 73 328 1.0 4.0 0.00 0.02 0.02 1022.3
20260905161549 73 352 1.0 7.0 0.00 0.02 0.02 1022.2
20260905160546 75 293 3.0 6.0 0.00 0.02 0.02 1022.1
20260905155542 73 18 1.0 5.0 0.00 0.02 0.02 1021.8
20260905154538 74 10 1.0 8.0 0.00 0.02 0.02 1021.8
20260905153534 75 321 2.0 7.0 0.00 0.02 0.02 1021.8
20260905152530 76 334 3.0 9.0 0.00 0.02 0.02 1021.7
20260905151526 77 312 3.0 9.0 0.00 0.02 0.02 1021.6
20260905150522 77 0 2.0 4.0 0.00 0.02 0.02 1021.5
20260905145519 76 314 2.0 11.0 0.00 0.02 0.02 1021.4
20260905143611 76 17 2.0 8.0 0.00 0.02 0.02 1021.3
20260905142608 75 40 3.0 9.0 0.00 0.02 0.02 1021.3
20260905141604 78 294 2.0 8.0 0.00 0.02 0.02 1021.3
20260905140600 77 90 4.0 11.0 0.00 0.02 0.02 1021.3
20260905135557 77 255 2.0 9.0 0.00 0.02 0.02 1021.3
20260905134553 77 346 3.0 8.0 0.00 0.02 0.02 1021.2
20260905133549 77 357 2.0 5.0 0.00 0.02 0.02 1021.3
20260905132545 77 288 2.0 7.0 0.00 0.02 0.02 1021.2
20260905131541 77 287 2.0 8.0 0.00 0.02 0.02 1021.0
20260905130537 76 315 2.0 6.0 0.00 0.02 0.02 1021.0
20260905125534 76 331 3.0 10.0 0.00 0.02 0.02 1021.0
20260905124559 76 302 2.0 9.0 0.00 0.02 0.02 1020.8
20260905123556 77 145 2.0 10.0 0.00 0.02 0.02 1021.0
20260905122553 77 163 1.0 5.0 0.00 0.02 0.02 1020.9
20260905121548 76 31 2.0 10.0 0.00 0.02 0.02 1020.9
20260905120546 74 113 3.0 11.0 0.00 0.02 0.02 1021.0
20260905115541 74 21 2.0 9.0 0.00 0.02 0.02 1020.7
20260905114538 73 286 3.0 8.0 0.00 0.02 0.02 1020.8
20260905113534 74 273 3.0 15.0 0.00 0.02 0.02 1020.7
20260905112530 73 311 2.0 7.0 0.00 0.02 0.02 1020.9
20260905111526 74 307 3.0 11.0 0.00 0.02 0.02 1020.9
20260905110523 73 0 1.0 3.0 0.00 0.02 0.02 1021.0
20260905105519 71 17 3.0 10.0 0.00 0.02 0.02 1020.9
20260905104615 71 89 1.0 8.0 0.00 0.02 0.02 1021.0
20260905103612 72 301 2.0 9.0 0.00 0.02 0.02 1021.1
20260905102608 72 301 2.0 6.0 0.00 0.02 0.02 1021.1
20260905101605 72 270 0.0 3.0 0.00 0.02 0.02 1021.2
20260905095557 73 198 3.0 8.0 0.01 0.02 0.02 1021.0
20260905094553 71 307 2.0 8.0 0.01 0.02 0.02 1020.9
20260905093549 71 239 2.0 10.0 0.01 0.02 0.02 1021.1
20260905092545 70 249 1.0 8.0 0.01 0.02 0.02 1021.0
20260905091542 71 273 3.0 8.0 0.01 0.02 0.02 1021.0
20260905090538 70 315 2.0 6.0 0.01 0.02 0.02 1020.8
20260905085534 68 111 0.0 4.0 0.00 0.01 0.01 1020.7
20260905084601 66 27 1.0 4.0 0.00 0.01 0.01 1020.8
20260905083557 65 158 0.0 4.0 0.00 0.01 0.01 1020.8
20260905082553 65 256 1.0 7.0 0.00 0.01 0.01 1020.9
20260905081549 65 0.0 2.0 0.00 0.01 0.01 1020.8
20260905080545 65 180 2.0 4.0 0.00 0.01 0.01 1020.8
20260905075541 65 238 1.0 6.0 0.00 0.01 0.01 1020.7
20260905074537 65 180 0.0 6.0 0.00 0.01 0.01 1020.6
20260905073534 65 0.0 2.0 0.00 0.01 0.01 1020.5
20260905072530 65 0.0 0.0 0.00 0.01 0.01 1020.4
20260905071526 64 0.0 2.0 0.00 0.01 0.01 1020.4
20260905070522 64 0.0 0.0 0.00 0.01 0.01 1020.4
20260905065518 63 0.0 0.0 0.00 0.01 0.01 1020.4
20260905064615 62 225 0.0 3.0 0.00 0.01 0.01 1020.4
20260905063611 62 225 0.0 2.0 0.00 0.01 0.01 1020.2
20260905062607 62 243 2.0 4.0 0.00 0.01 0.01 1020.1
20260905061603 61 215 1.0 3.0 0.00 0.01 0.01 1019.8
20260905060600 61 270 2.0 4.0 0.00 0.01 0.01 1019.8
20260905055556 60 234 2.0 4.0 0.00 0.01 0.01 1019.7
20260905054552 60 0.0 2.0 0.00 0.01 0.01 1019.6
20260905053548 60 0.0 2.0 0.00 0.01 0.01 1019.4
20260905052544 60 180 0.0 4.0 0.00 0.01 0.01 1019.3
20260905051540 60 225 1.0 4.0 0.00 0.01 0.01 1019.3
20260905050537 60 0.0 0.0 0.00 0.01 0.01 1019.1
20260905045533 59 222 1.0 4.0 0.00 0.01 0.01 1019.1
20260905044529 59 0.0 2.0 0.00 0.01 0.01 1019.1
20260905043526 59 0.0 0.0 0.00 0.01 0.01 1018.7
20260905042522 59 0.0 0.0 0.00 0.01 0.01 1018.5
20260905041518 58 0.0 1.0 0.00 0.01 0.01 1018.4
20260905040615 58 0.0 0.0 0.00 0.01 0.01 1018.3
20260905035611 58 0.0 2.0 0.00 0.01 0.01 1018.3
20260905034608 58 225 0.0 2.0 0.00 0.01 0.01 1018.1
20260905033604 58 0.0 2.0 0.00 0.01 0.01 1018.0
20260905032600 58 0.0 2.0 0.00 0.01 0.01 1018.0
20260905031555 58 0.0 0.0 0.00 0.01 0.01 1017.8
20260905030552 58 0.0 0.0 0.00 0.01 0.01 1017.8
20260905025548 58 0.0 2.0 0.00 0.01 0.01 1017.8
20260905024544 58 225 0.0 3.0 0.00 0.01 0.01 1017.8
20260905023541 59 0.0 0.0 0.00 0.01 0.01 1017.7
20260905022537 59 0.0 3.0 0.00 0.01 0.01 1017.7
20260905021533 59 0.0 1.0 0.00 0.01 0.01 1017.4
20260905020530 59 0.0 0.0 0.00 0.01 0.01 1017.2
20260905015526 59 0.0 0.0 0.00 0.01 0.01 1017.4
20260905014523 59 0.0 0.0 0.01 0.01 0.01 1017.5
20260905013519 59 0.0 0.0 0.01 0.01 0.01 1017.4
20260905012615 60 0.0 1.0 0.01 0.01 0.01 1017.2
20260905011611 60 0.0 1.0 0.01 0.01 0.01 1017.5
20260905010607 61 0.0 0.0 0.01 0.01 0.01 1017.5
20260905005604 62 0.0 2.0 0.01 0.01 0.01 1017.1
20260905004559 63 270 0.0 2.0 0.00 0.00 0.00 1017.0
20260905003556 64 0.0 2.0 0.00 0.00 0.00 1016.8
20260905002552 64 0.0 3.0 0.00 0.00 0.00 1016.6
20260905001548 64 0 0.0 4.0 0.00 0.00 0.00 1016.3
20260905000545 64 0.0 1.0 0.00 0.00 0.00 1016.4
20260904235540 64 270 0.0 4.0 0.00 0.00 0.00 1016.5
20260904234536 64 0.0 0.0 0.00 0.00 0.00 1016.5
20260904233533 64 0.0 2.0 0.00 0.00 0.00 1016.2
20260904232559 64 0.0 0.0 0.00 0.00 0.00 1016.3
20260904231556 65 0.0 0.0 0.00 0.00 0.00 1016.3
20260904230552 65 180 1.0 3.0 0.00 0.00 0.00 1016.3
20260904225548 65 359 0.0 3.0 0.00 0.00 0.00 1016.0
20260904224544 66 47 2.0 8.0 0.00 0.00 0.00 1016.1
20260904223540 66 350 1.0 6.0 0.00 0.00 0.00 1016.0
20260904222536 67 14 1.0 4.0 0.00 0.00 0.00 1016.0
20260904221532 68 358 2.0 9.0 0.00 0.00 0.00 1015.9
20260904220559 68 45 2.0 5.0 0.00 0.00 0.00 1015.5
20260904215555 69 84 2.0 9.0 0.00 0.00 0.00 1015.5
20260904214552 69 341 4.0 12.0 0.00 0.00 0.00 1015.3